Location: Flotzheim
(48.8375°N, 10.8136°E)
Time: 03:56:41
(UTC+00:00)

COSMOS 2406 - Pass Details

Date: 23 January 2021
Orbit: 841 x 866 km, 71.0° (Epoch: 26 February)

Event Time Altitude Azimuth Distance (km) Brightness Sun altitude
Rises 16:49:36 0° 335° (NNW) 3,460 6.5 -8.2°
Reaches altitude 10° 16:52:34 10° 349° (N) 2,519 5.6 -8.7°
Maximum altitude 16:57:15 25° 43° (NE) 1,701 4.3 -9.4°
Drops below altitude 10° 17:01:54 10° 97° (E) 2,505 5.1 -10.1°
Enters shadow 17:02:02 10° 98° (E) 2,542 5.1 -10.2°
